This is the latest recevied weather packets stored in our database for station/object HB9HFD-13. If no packets are shown the sender has not sent any weather packets the latest 10 day(s).
| Time | Temp. | Humidity | Pressure | Rain* | Wind** | Luminosity | Snow |
|---|---|---|---|---|---|---|---|
| 1787615194 | 17.78° C | 94% | 1009.6 hPa | 9.4 mm | - | - | - |
| 1787614894 | 17.78° C | 93% | 1009.7 hPa | 9.65 mm | - | - | - |
| 1787614593 | 17.78° C | 93% | 1009.7 hPa | 10.41 mm | - | - | - |
| 1787614293 | 17.78° C | 93% | 1009.7 hPa | 11.18 mm | - | - | - |
| 1787613993 | 17.78° C | 93% | 1009.7 hPa | 11.68 mm | - | - | - |
| 1787613693 | 17.78° C | 93% | 1009.7 hPa | 11.94 mm | - | - | - |
| 1787613392 | 17.78° C | 93% | 1009.7 hPa | 13.46 mm | - | - | - |
| 1787613092 | 17.78° C | 93% | 1009.8 hPa | 14.73 mm | - | - | - |
| 1787612792 | 17.78° C | 92% | 1009.8 hPa | 14.73 mm | - | - | - |
| 1787612491 | 17.78° C | 92% | 1009.8 hPa | 14.48 mm | - | - | - |
| 1787612191 | 17.78° C | 92% | 1009.8 hPa | 12.95 mm | - | - | - |
| 1787611891 | 17.78° C | 92% | 1009.8 hPa | 12.45 mm | - | - | - |
| 1787611591 | 17.78° C | 91% | 1009.9 hPa | 12.7 mm | - | - | - |
| 1787611290 | 17.78° C | 91% | 1009.7 hPa | 12.45 mm | - | - | - |
| 1787610991 | 17.78° C | 90% | 1009.7 hPa | 12.19 mm | - | - | - |
| 1787610690 | 17.78° C | 90% | 1009.7 hPa | 11.18 mm | - | - | - |
| 1787610390 | 17.78° C | 89% | 1009.5 hPa | 10.16 mm | - | - | - |
| 1787610089 | 18.33° C | 89% | 1009.4 hPa | 9.91 mm | - | - | - |
| 1787609789 | 18.33° C | 88% | 1009.3 hPa | 8.38 mm | - | - | - |
| 1787609489 | 18.33° C | 87% | 1009.2 hPa | 6.6 mm | - | - | - |
| 1787609189 | 18.89° C | 84% | 1009.1 hPa | 4.83 mm | - | - | - |
| 1787608888 | 18.89° C | 81% | 1008.9 hPa | 3.56 mm | - | - | - |
| 1787608588 | 19.44° C | 79% | 1008.8 hPa | 3.3 mm | - | - | - |
| 1787608288 | 20.56° C | 76% | 1008.7 hPa | 2.54 mm | - | - | - |
| 1787607987 | 21.11° C | 74% | 1008.8 hPa | 1.02 mm | - | - | - |
* Rain latest hour (hover to see other rain measurements)
** Current wind speed in m/s (hover to see current wind gust speed)